NOZ1972 ENGM-LEBB

Flight info

Callsign NOZ1972
Flight time 2h 50m
Altitude 34000
Route VIPPA DCT UPGAS DCT TIPAN DCT EZTIM UM185 DIGSU N866 SAM N63 LELNA DCT NOVAN DCT NENEM N867 MAPAX
Aircraft B739/M-SDE2E3FGHIRWXY/LB1

Departure

Time 2026-04-30 07:55
Airport Oslo-Gardermoen International Airport (ENGM)

Arrival

Time 2026-04-30 10:46
Airport Bilbao Airport (LEBB)
Time Latitude Longitude Altitude Speed Heading
2026-04-30 07:18 60.19400 11.08833 679 ft 0 kts 195°
2026-04-30 07:47 60.19421 11.08850 680 ft 4 kts 221°
2026-04-30 07:47 60.19434 11.08889 677 ft 4 kts 279°
2026-04-30 07:47 60.19427 11.08917 676 ft 1 kts 320°
2026-04-30 07:48 60.19425 11.08921 681 ft 1 kts 320°
2026-04-30 07:49 60.19426 11.08919 681 ft 1 kts 320°
2026-04-30 07:50 60.19446 11.08887 680 ft 6 kts 327°
2026-04-30 07:50 60.19492 11.08822 680 ft 12 kts 296°
2026-04-30 07:50 60.19522 11.08620 673 ft 15 kts 287°
2026-04-30 07:50 60.19609 11.08576 677 ft 14 kts 16°
2026-04-30 07:51 60.19706 11.08631 678 ft 15 kts 16°
2026-04-30 07:51 60.19822 11.08698 678 ft 19 kts 16°
2026-04-30 07:51 60.19963 11.08781 677 ft 23 kts 17°
2026-04-30 07:51 60.20121 11.08870 680 ft 23 kts 15°
2026-04-30 07:52 60.20272 11.08957 680 ft 22 kts 16°
2026-04-30 07:52 60.20420 11.09043 681 ft 22 kts 16°
2026-04-30 07:52 60.20563 11.09125 681 ft 21 kts 16°
2026-04-30 07:52 60.20711 11.09211 680 ft 23 kts 16°
2026-04-30 07:53 60.20878 11.09307 684 ft 27 kts 16°
2026-04-30 07:53 60.21060 11.09413 683 ft 27 kts 16°
2026-04-30 07:53 60.21234 11.09514 684 ft 25 kts 15°
2026-04-30 07:53 60.21393 11.09604 686 ft 23 kts 16°
2026-04-30 07:54 60.21511 11.09608 680 ft 17 kts 327°
2026-04-30 07:54 60.21561 11.09393 683 ft 17 kts 286°
2026-04-30 07:54 60.21556 11.09167 678 ft 17 kts 231°
2026-04-30 07:54 60.21504 11.09111 683 ft 0 kts 196°
2026-04-30 07:55 60.21485 11.09099 683 ft 18 kts 196°
2026-04-30 07:55 60.20981 11.08808 680 ft 128 kts 196°
2026-04-30 07:55 60.19887 11.08207 1114 ft 173 kts 195°
2026-04-30 07:55 60.18717 11.07547 2428 ft 180 kts 196°
2026-04-30 07:56 60.17444 11.06835 3493 ft 196 kts 196°
2026-04-30 07:56 60.16180 11.05979 4828 ft 193 kts 208°
2026-04-30 07:56 60.15076 11.04139 5417 ft 221 kts 230°
2026-04-30 07:56 60.14273 11.01361 5846 ft 239 kts 259°
2026-04-30 07:57 60.14146 10.97937 6388 ft 257 kts 268°
2026-04-30 07:57 60.13980 10.94283 7271 ft 266 kts 261°
2026-04-30 07:57 60.13314 10.90800 8353 ft 271 kts 244°
2026-04-30 07:57 60.12431 10.87487 9363 ft 276 kts 246°
2026-04-30 07:58 60.11577 10.84003 10374 ft 281 kts 248°
2026-04-30 07:58 60.10718 10.80386 11039 ft 299 kts 248°
2026-04-30 07:58 60.09789 10.76410 11264 ft 330 kts 248°
2026-04-30 07:58 60.08780 10.72071 11649 ft 352 kts 248°
2026-04-30 07:59 60.07733 10.67575 12387 ft 360 kts 248°
2026-04-30 07:59 60.06666 10.63004 13320 ft 363 kts 248°
2026-04-30 07:59 60.05428 10.58547 14144 ft 375 kts 234°
2026-04-30 08:00 60.00756 10.53640 15668 ft 396 kts 191°
2026-04-30 08:00 59.98017 10.52803 16461 ft 401 kts 190°
2026-04-30 08:00 59.95237 10.51933 17180 ft 407 kts 191°
2026-04-30 08:00 59.92424 10.51045 17934 ft 411 kts 191°
2026-04-30 08:01 59.89584 10.50132 18695 ft 415 kts 191°
2026-04-30 08:01 59.86723 10.49196 19363 ft 419 kts 191°
2026-04-30 08:01 59.83833 10.48242 20049 ft 422 kts 191°
2026-04-30 08:01 59.80929 10.47278 20732 ft 425 kts 191°
2026-04-30 08:02 59.75075 10.45334 22053 ft 433 kts 191°
2026-04-30 08:02 59.72099 10.44346 22704 ft 436 kts 191°
2026-04-30 08:03 59.66062 10.42351 23977 ft 444 kts 191°
2026-04-30 08:03 59.59915 10.40330 25054 ft 450 kts 191°
2026-04-30 08:03 59.56818 10.39306 25595 ft 452 kts 192°
2026-04-30 08:04 59.53702 10.38256 26118 ft 455 kts 192°
2026-04-30 08:04 59.50578 10.37196 26632 ft 458 kts 192°
2026-04-30 08:04 59.47420 10.36125 27122 ft 461 kts 192°
2026-04-30 08:04 59.44248 10.35051 27615 ft 464 kts 191°
2026-04-30 08:05 59.41058 10.33977 28112 ft 466 kts 191°
2026-04-30 08:05 59.37851 10.32900 28590 ft 469 kts 191°
2026-04-30 08:05 59.34623 10.31820 29055 ft 472 kts 191°
2026-04-30 08:05 59.31380 10.30737 29577 ft 473 kts 191°
2026-04-30 08:06 59.28138 10.29657 30264 ft 471 kts 191°
2026-04-30 08:06 59.24920 10.28586 30943 ft 467 kts 191°
2026-04-30 08:06 59.21766 10.27538 31525 ft 464 kts 191°
2026-04-30 08:06 59.18580 10.26481 32022 ft 464 kts 191°
2026-04-30 08:07 59.15391 10.25488 32488 ft 465 kts 188°
2026-04-30 08:07 59.12172 10.24954 32989 ft 464 kts 184°
2026-04-30 08:07 59.08947 10.24656 33553 ft 462 kts 184°
2026-04-30 08:07 59.05738 10.24370 34103 ft 460 kts 184°
2026-04-30 08:08 59.02541 10.24013 34451 ft 462 kts 184°
2026-04-30 08:08 58.96079 10.22986 34405 ft 465 kts 192°
2026-04-30 08:08 58.93092 10.20805 34447 ft 457 kts 212°
2026-04-30 08:09 58.90530 10.17206 34423 ft 456 kts 222°
2026-04-30 08:09 58.85643 10.09212 34433 ft 469 kts 222°
2026-04-30 08:10 58.80611 10.01018 34429 ft 477 kts 221°
2026-04-30 08:10 58.75506 9.92835 34417 ft 476 kts 221°
2026-04-30 08:11 58.70404 9.84740 34425 ft 475 kts 221°
2026-04-30 08:11 58.65290 9.76668 34408 ft 476 kts 221°
2026-04-30 08:12 58.60164 9.68607 34425 ft 476 kts 221°
2026-04-30 08:12 58.55029 9.60560 34426 ft 477 kts 221°
2026-04-30 08:13 58.49881 9.52523 34424 ft 478 kts 221°
2026-04-30 08:13 58.44755 9.44552 34422 ft 478 kts 221°
2026-04-30 08:14 58.39590 9.36551 34428 ft 478 kts 221°
2026-04-30 08:14 58.34440 9.28606 34418 ft 475 kts 221°
2026-04-30 08:15 58.29307 9.20716 34427 ft 475 kts 221°
2026-04-30 08:15 58.24156 9.12829 34425 ft 475 kts 221°
2026-04-30 08:16 58.19026 9.05003 34426 ft 476 kts 221°
2026-04-30 08:16 58.13863 8.97158 34421 ft 476 kts 221°
2026-04-30 08:17 58.08686 8.89322 34427 ft 476 kts 220°
2026-04-30 08:17 58.03500 8.81503 34431 ft 477 kts 220°
2026-04-30 08:18 57.98318 8.73718 34425 ft 477 kts 220°
2026-04-30 08:18 57.93126 8.65949 34437 ft 477 kts 220°
2026-04-30 08:19 57.87920 8.58188 34430 ft 477 kts 220°
2026-04-30 08:19 57.82744 8.50500 34433 ft 477 kts 220°
2026-04-30 08:20 57.77535 8.42794 34442 ft 476 kts 220°
2026-04-30 08:20 57.72333 8.35127 34446 ft 476 kts 220°
2026-04-30 08:21 57.67127 8.27482 34450 ft 476 kts 220°
2026-04-30 08:21 57.61908 8.19847 34459 ft 476 kts 220°
2026-04-30 08:22 57.56681 8.12230 34456 ft 477 kts 220°
2026-04-30 08:22 57.51448 8.04632 34462 ft 477 kts 220°
2026-04-30 08:23 57.46211 7.97056 34468 ft 477 kts 220°
2026-04-30 08:23 57.40962 7.89492 34476 ft 477 kts 220°
2026-04-30 08:24 57.35714 7.81956 34471 ft 477 kts 220°
2026-04-30 08:24 57.30468 7.74453 34474 ft 476 kts 220°
2026-04-30 08:25 57.25235 7.66996 34484 ft 473 kts 219°
2026-04-30 08:25 57.24897 7.66515 34487 ft 473 kts 219°
2026-04-30 08:26 57.22937 7.63730 34488 ft 474 kts 219°
2026-04-30 08:27 57.17706 7.56313 34488 ft 474 kts 219°
2026-04-30 08:27 57.12475 7.48923 34501 ft 474 kts 219°
2026-04-30 08:28 57.07241 7.41558 34490 ft 473 kts 219°
2026-04-30 08:28 57.02000 7.34209 34495 ft 473 kts 219°
2026-04-30 08:29 56.96796 7.26940 34503 ft 473 kts 219°
2026-04-30 08:29 56.91551 7.19637 34501 ft 473 kts 219°
2026-04-30 08:30 56.86306 7.12362 34507 ft 473 kts 218°
2026-04-30 08:30 56.81053 7.05102 34513 ft 473 kts 218°
2026-04-30 08:31 56.75807 6.97879 34504 ft 471 kts 218°
2026-04-30 08:31 56.71461 6.91913 34511 ft 470 kts 218°
2026-04-30 08:32 56.65370 6.83583 34510 ft 471 kts 218°
2026-04-30 08:32 56.60978 6.77597 34513 ft 471 kts 218°
2026-04-30 08:33 56.55763 6.70513 34515 ft 471 kts 218°
2026-04-30 08:33 56.50504 6.63394 34515 ft 472 kts 218°
2026-04-30 08:34 56.45244 6.56299 34514 ft 472 kts 218°
2026-04-30 08:34 56.39972 6.49213 34518 ft 472 kts 218°
2026-04-30 08:35 56.34692 6.42142 34518 ft 472 kts 218°
2026-04-30 08:35 56.29444 6.35139 34517 ft 472 kts 217°
2026-04-30 08:36 56.24157 6.28107 34513 ft 472 kts 217°
2026-04-30 08:36 56.18863 6.21090 34519 ft 472 kts 217°
2026-04-30 08:37 56.13580 6.14113 34519 ft 471 kts 217°
2026-04-30 08:37 56.08294 6.07157 34521 ft 471 kts 217°
2026-04-30 08:38 56.03039 6.00265 34521 ft 471 kts 217°
2026-04-30 08:38 55.97742 5.93342 34520 ft 471 kts 217°
2026-04-30 08:39 55.92445 5.86444 34513 ft 471 kts 217°
2026-04-30 08:39 55.87151 5.79572 34518 ft 471 kts 217°
2026-04-30 08:40 55.81845 5.72710 34519 ft 471 kts 217°
2026-04-30 08:40 55.76535 5.65865 34513 ft 471 kts 217°
2026-04-30 08:41 55.71223 5.59041 34506 ft 471 kts 217°
2026-04-30 08:41 55.65914 5.52244 34512 ft 471 kts 217°
2026-04-30 08:42 55.60600 5.45464 34511 ft 471 kts 217°
2026-04-30 08:42 55.55278 5.38698 34509 ft 472 kts 217°
2026-04-30 08:43 55.49945 5.31939 34528 ft 472 kts 217°
2026-04-30 08:43 55.44639 5.25238 34507 ft 472 kts 217°
2026-04-30 08:44 55.39292 5.18507 34506 ft 472 kts 217°
2026-04-30 08:44 55.33938 5.11791 34509 ft 473 kts 217°
2026-04-30 08:45 55.28571 5.05077 34504 ft 473 kts 217°
2026-04-30 08:45 55.23163 4.98499 34499 ft 474 kts 212°
2026-04-30 08:46 55.17360 4.92995 34499 ft 475 kts 208°
2026-04-30 08:46 55.11488 4.87670 34513 ft 476 kts 208°
2026-04-30 08:47 55.05668 4.82296 34504 ft 477 kts 209°
2026-04-30 08:47 54.99822 4.76839 34494 ft 476 kts 209°
2026-04-30 08:48 54.93943 4.71354 34491 ft 477 kts 209°
2026-04-30 08:48 54.88128 4.65952 34477 ft 479 kts 208°
2026-04-30 08:49 54.82251 4.60514 34467 ft 477 kts 208°
2026-04-30 08:49 54.76368 4.55088 34486 ft 477 kts 208°
2026-04-30 08:50 54.70500 4.49694 34489 ft 478 kts 208°
2026-04-30 08:50 54.64618 4.44302 34466 ft 478 kts 208°
2026-04-30 08:51 54.58873 4.38585 34459 ft 478 kts 218°
2026-04-30 08:51 54.53978 4.30851 34483 ft 479 kts 224°
2026-04-30 08:52 54.49154 4.23049 34473 ft 473 kts 223°
2026-04-30 08:52 54.44323 4.15380 34485 ft 473 kts 222°
2026-04-30 08:53 54.39464 4.07738 34471 ft 474 kts 221°
2026-04-30 08:53 54.34617 4.00144 34488 ft 476 kts 221°
2026-04-30 08:54 54.29719 3.92492 34470 ft 477 kts 221°
2026-04-30 08:54 54.24829 3.84874 34466 ft 475 kts 221°
2026-04-30 08:55 54.19926 3.77262 34477 ft 476 kts 221°
2026-04-30 08:55 54.15003 3.69643 34476 ft 478 kts 221°
2026-04-30 08:56 54.10103 3.62085 34454 ft 473 kts 220°
2026-04-30 08:56 54.05210 3.54564 34463 ft 474 kts 220°
2026-04-30 08:57 54.00303 3.47048 34462 ft 474 kts 220°
2026-04-30 08:57 53.95389 3.39545 34456 ft 475 kts 220°
2026-04-30 08:58 53.90469 3.32056 34445 ft 476 kts 220°
2026-04-30 08:58 53.85572 3.24628 34439 ft 476 kts 219°
2026-04-30 08:59 53.80629 3.17154 34453 ft 475 kts 220°
2026-04-30 08:59 53.75689 3.09709 34431 ft 473 kts 219°
2026-04-30 09:00 53.70780 3.02334 34416 ft 472 kts 219°
2026-04-30 09:00 53.65861 2.94971 34417 ft 473 kts 219°
2026-04-30 09:01 53.60921 2.87598 34417 ft 474 kts 219°
2026-04-30 09:01 53.56004 2.80284 34413 ft 474 kts 219°
2026-04-30 09:02 53.48581 2.69284 34415 ft 474 kts 219°
2026-04-30 09:02 53.43631 2.61976 34404 ft 474 kts 219°
2026-04-30 09:03 53.38673 2.54694 34403 ft 472 kts 218°
2026-04-30 09:03 53.33739 2.47513 34399 ft 469 kts 218°
2026-04-30 09:04 53.28800 2.40347 34402 ft 471 kts 218°
2026-04-30 09:04 53.23852 2.33179 34395 ft 471 kts 218°
2026-04-30 09:05 53.18928 2.26062 34394 ft 471 kts 218°
2026-04-30 09:05 53.13971 2.18906 34390 ft 471 kts 218°
2026-04-30 09:06 53.09011 2.11765 34391 ft 471 kts 218°
2026-04-30 09:06 53.04047 2.04640 34392 ft 471 kts 218°
2026-04-30 09:07 52.99087 1.97542 34390 ft 469 kts 218°
2026-04-30 09:07 52.94126 1.90467 34382 ft 470 kts 218°
2026-04-30 09:08 52.89159 1.83407 34382 ft 471 kts 218°
2026-04-30 09:08 52.84175 1.76344 34380 ft 471 kts 217°
2026-04-30 09:09 52.79223 1.69347 34380 ft 471 kts 217°
2026-04-30 09:09 52.74244 1.62334 34379 ft 470 kts 217°
2026-04-30 09:10 52.69251 1.55325 34356 ft 471 kts 217°
2026-04-30 09:10 52.64256 1.48334 34364 ft 470 kts 217°
2026-04-30 09:11 52.59285 1.41395 34350 ft 467 kts 217°
2026-04-30 09:11 52.54321 1.34490 34357 ft 468 kts 217°
2026-04-30 09:12 52.49334 1.27576 34358 ft 469 kts 216°
2026-04-30 09:12 52.44374 1.20719 34353 ft 469 kts 216°
2026-04-30 09:13 52.39379 1.13833 34336 ft 469 kts 216°
2026-04-30 09:13 52.34387 1.06973 34330 ft 469 kts 216°
2026-04-30 09:14 52.29389 1.00126 34323 ft 469 kts 216°
2026-04-30 09:14 52.24390 0.93296 34324 ft 466 kts 216°
2026-04-30 09:15 52.19423 0.86533 34323 ft 465 kts 216°
2026-04-30 09:15 52.14454 0.79787 34317 ft 466 kts 216°
2026-04-30 09:16 52.09497 0.73077 34311 ft 466 kts 216°
2026-04-30 09:16 52.04512 0.66346 34304 ft 466 kts 216°
2026-04-30 09:17 51.99887 0.58900 34310 ft 473 kts 227°
2026-04-30 09:17 51.95826 0.50502 34293 ft 474 kts 227°
2026-04-30 09:18 51.91729 0.42138 34298 ft 473 kts 227°
2026-04-30 09:18 51.87590 0.33840 34291 ft 473 kts 226°
2026-04-30 09:19 51.83441 0.25597 34295 ft 472 kts 226°
2026-04-30 09:19 51.79283 0.17365 34302 ft 473 kts 226°
2026-04-30 09:20 51.75132 0.09170 34289 ft 473 kts 226°
2026-04-30 09:20 51.70958 0.00952 34271 ft 474 kts 226°
2026-04-30 09:21 51.67483 -0.05874 34339 ft 471 kts 226°
2026-04-30 09:21 51.63334 -0.13996 34340 ft 470 kts 226°
2026-04-30 09:22 51.59174 -0.22111 34338 ft 470 kts 226°
2026-04-30 09:22 51.54999 -0.30230 34242 ft 470 kts 225°
2026-04-30 09:23 51.50825 -0.38323 34244 ft 471 kts 225°
2026-04-30 09:23 51.46644 -0.46406 34238 ft 471 kts 225°
2026-04-30 09:24 51.42453 -0.54481 34239 ft 471 kts 225°
2026-04-30 09:24 51.38261 -0.62533 34240 ft 471 kts 225°
2026-04-30 09:25 51.34064 -0.70570 34236 ft 471 kts 225°
2026-04-30 09:25 51.29881 -0.78553 34212 ft 471 kts 225°
2026-04-30 09:26 51.25666 -0.86578 34212 ft 471 kts 225°
2026-04-30 09:26 51.21440 -0.94595 34213 ft 471 kts 225°
2026-04-30 09:27 51.16940 -1.02147 34222 ft 467 kts 219°
2026-04-30 09:27 51.12210 -1.09161 34210 ft 467 kts 218°
2026-04-30 09:28 51.07480 -1.16258 34190 ft 467 kts 219°
2026-04-30 09:28 51.02793 -1.23407 34188 ft 467 kts 219°
2026-04-30 09:29 50.98098 -1.30558 34186 ft 467 kts 219°
2026-04-30 09:29 50.92995 -1.36734 34180 ft 457 kts 203°
2026-04-30 09:30 50.87283 -1.41102 34200 ft 456 kts 202°
2026-04-30 09:30 50.81583 -1.45608 34196 ft 460 kts 204°
2026-04-30 09:31 50.75853 -1.50189 34197 ft 462 kts 204°
2026-04-30 09:31 50.70139 -1.54725 34193 ft 462 kts 203°
2026-04-30 09:32 50.64396 -1.59260 34190 ft 461 kts 203°
2026-04-30 09:32 50.58644 -1.63789 34183 ft 463 kts 203°
2026-04-30 09:33 50.52875 -1.68322 34171 ft 463 kts 203°
2026-04-30 09:33 50.47108 -1.72844 34188 ft 462 kts 203°
2026-04-30 09:34 50.41349 -1.77347 34176 ft 462 kts 203°
2026-04-30 09:34 50.35578 -1.81845 34159 ft 464 kts 204°
2026-04-30 09:35 50.29832 -1.86314 34163 ft 464 kts 203°
2026-04-30 09:35 50.24030 -1.90813 34152 ft 465 kts 203°
2026-04-30 09:36 50.18244 -1.95288 34150 ft 464 kts 203°
2026-04-30 09:36 50.12460 -1.99749 34146 ft 464 kts 204°
2026-04-30 09:37 50.06669 -2.04205 34140 ft 464 kts 203°
2026-04-30 09:37 50.00876 -2.08650 34133 ft 464 kts 203°
2026-04-30 09:38 49.94949 -2.12503 34135 ft 460 kts 194°
2026-04-30 09:38 49.88831 -2.15243 34093 ft 461 kts 193°
2026-04-30 09:39 49.82663 -2.17997 34088 ft 462 kts 194°
2026-04-30 09:39 49.76491 -2.20821 34074 ft 462 kts 194°
2026-04-30 09:40 49.70325 -2.23677 34079 ft 462 kts 194°
2026-04-30 09:40 49.64184 -2.26525 34081 ft 456 kts 194°
2026-04-30 09:41 49.58149 -2.29316 34082 ft 451 kts 193°
2026-04-30 09:41 49.52148 -2.32076 34087 ft 454 kts 193°
2026-04-30 09:42 49.46090 -2.34857 34065 ft 451 kts 193°
2026-04-30 09:42 49.40071 -2.37614 34063 ft 451 kts 193°
2026-04-30 09:43 49.34055 -2.40360 34061 ft 451 kts 193°
2026-04-30 09:43 49.28025 -2.43107 34063 ft 452 kts 193°
2026-04-30 09:44 49.22004 -2.45843 34076 ft 452 kts 193°
2026-04-30 09:44 49.15975 -2.48576 34062 ft 452 kts 193°
2026-04-30 09:45 49.09978 -2.51288 34070 ft 452 kts 193°
2026-04-30 09:45 49.03945 -2.54008 34078 ft 452 kts 193°
2026-04-30 09:46 48.97905 -2.56725 34079 ft 452 kts 193°
2026-04-30 09:46 48.91868 -2.59434 34082 ft 452 kts 193°
2026-04-30 09:47 48.85822 -2.62140 34074 ft 452 kts 193°
2026-04-30 09:47 48.79782 -2.64837 34074 ft 452 kts 193°
2026-04-30 09:48 48.73778 -2.67511 34061 ft 452 kts 193°
2026-04-30 09:48 48.67745 -2.70191 34060 ft 452 kts 193°
2026-04-30 09:49 48.61711 -2.72865 34056 ft 452 kts 193°
2026-04-30 09:49 48.55661 -2.75539 34055 ft 453 kts 193°
2026-04-30 09:50 48.49611 -2.78206 34047 ft 453 kts 193°
2026-04-30 09:50 48.43547 -2.80873 34046 ft 454 kts 193°
2026-04-30 09:51 48.37485 -2.83533 34043 ft 454 kts 193°
2026-04-30 09:51 48.31414 -2.86190 34043 ft 454 kts 193°
2026-04-30 09:52 48.25387 -2.88821 34038 ft 454 kts 193°
2026-04-30 09:52 48.19318 -2.91464 34030 ft 454 kts 193°
2026-04-30 09:53 48.13251 -2.94099 34029 ft 454 kts 193°
2026-04-30 09:53 48.07181 -2.96730 34022 ft 454 kts 193°
2026-04-30 09:54 48.01120 -2.99351 34026 ft 449 kts 193°
2026-04-30 09:54 47.95132 -3.01935 34023 ft 449 kts 193°
2026-04-30 09:55 47.89125 -3.04517 34013 ft 450 kts 193°
2026-04-30 09:55 47.83098 -3.07102 34007 ft 450 kts 193°
2026-04-30 09:56 47.77086 -3.09676 34019 ft 449 kts 193°
2026-04-30 09:56 47.71103 -3.12232 34017 ft 450 kts 193°
2026-04-30 09:57 47.65047 -3.14812 34019 ft 450 kts 193°
2026-04-30 09:57 47.59032 -3.17369 34019 ft 450 kts 193°
2026-04-30 09:58 47.53057 -3.19902 34023 ft 450 kts 193°
2026-04-30 09:58 47.47031 -3.22451 34019 ft 450 kts 193°
2026-04-30 09:59 47.34971 -3.27534 34015 ft 451 kts 193°
2026-04-30 10:00 47.25951 -3.31320 34037 ft 451 kts 193°
2026-04-30 10:01 47.16900 -3.35107 34035 ft 448 kts 193°
2026-04-30 10:02 47.07907 -3.38854 34033 ft 450 kts 193°
2026-04-30 10:02 47.01873 -3.41362 34032 ft 451 kts 193°
2026-04-30 10:03 46.95826 -3.43869 34039 ft 451 kts 193°
2026-04-30 10:03 46.89817 -3.46355 34027 ft 452 kts 193°
2026-04-30 10:04 46.83749 -3.48858 34037 ft 454 kts 193°
2026-04-30 10:04 46.77657 -3.51366 34034 ft 455 kts 193°
2026-04-30 10:05 46.71561 -3.53871 34039 ft 455 kts 193°
2026-04-30 10:05 46.65465 -3.56369 34029 ft 455 kts 193°
2026-04-30 10:06 46.59371 -3.58860 34032 ft 455 kts 193°
2026-04-30 10:06 46.53311 -3.61332 34037 ft 455 kts 193°
2026-04-30 10:07 46.47210 -3.63814 34037 ft 455 kts 194°
2026-04-30 10:07 46.41106 -3.66294 34038 ft 456 kts 194°
2026-04-30 10:08 46.34986 -3.68704 34034 ft 455 kts 190°
2026-04-30 10:08 46.28702 -3.69118 34032 ft 453 kts 173°
2026-04-30 10:09 46.22489 -3.67519 34037 ft 455 kts 169°
2026-04-30 10:09 46.17307 -3.66170 34040 ft 456 kts 169°
2026-04-30 10:10 46.11055 -3.64591 34039 ft 456 kts 169°
2026-04-30 10:10 46.04788 -3.63029 34041 ft 458 kts 169°
2026-04-30 10:11 45.98507 -3.61468 34044 ft 458 kts 169°
2026-04-30 10:11 45.92219 -3.59908 34043 ft 459 kts 169°
2026-04-30 10:12 45.85906 -3.58344 34046 ft 460 kts 169°
2026-04-30 10:12 45.79623 -3.56790 34045 ft 462 kts 169°
2026-04-30 10:13 45.73285 -3.55227 34046 ft 461 kts 169°
2026-04-30 10:13 45.66951 -3.53668 34051 ft 464 kts 170°
2026-04-30 10:14 45.60575 -3.52102 34048 ft 464 kts 170°
2026-04-30 10:14 45.51066 -3.49775 34059 ft 462 kts 169°
2026-04-30 10:15 45.44715 -3.48224 34055 ft 464 kts 169°
2026-04-30 10:15 45.38359 -3.46675 34048 ft 462 kts 169°
2026-04-30 10:16 45.32045 -3.45141 34064 ft 464 kts 169°
2026-04-30 10:17 45.22455 -3.42817 34059 ft 466 kts 169°
2026-04-30 10:17 45.12836 -3.40494 34067 ft 469 kts 170°
2026-04-30 10:18 45.06341 -3.38929 34065 ft 477 kts 170°
2026-04-30 10:19 44.96541 -3.36576 34061 ft 475 kts 170°
2026-04-30 10:19 44.90058 -3.35024 34063 ft 475 kts 171°
2026-04-30 10:20 44.83535 -3.33466 34068 ft 475 kts 171°
2026-04-30 10:20 44.73758 -3.31137 34064 ft 475 kts 171°
2026-04-30 10:21 44.67230 -3.29586 34066 ft 475 kts 171°
2026-04-30 10:21 44.60700 -3.28038 34067 ft 475 kts 171°
2026-04-30 10:22 44.54321 -3.26529 34053 ft 456 kts 171°
2026-04-30 10:22 44.48096 -3.25060 34073 ft 450 kts 171°
2026-04-30 10:23 44.45024 -3.24336 33727 ft 449 kts 171°
2026-04-30 10:23 44.41970 -3.23617 33288 ft 440 kts 171°
2026-04-30 10:23 44.38982 -3.22915 32829 ft 431 kts 171°
2026-04-30 10:23 44.36048 -3.22225 32297 ft 424 kts 171°
2026-04-30 10:24 44.33157 -3.21547 31866 ft 417 kts 172°
2026-04-30 10:24 44.30311 -3.20880 31394 ft 413 kts 172°
2026-04-30 10:24 44.27475 -3.20216 30941 ft 416 kts 172°
2026-04-30 10:24 44.24601 -3.19545 30483 ft 420 kts 171°
2026-04-30 10:25 44.21729 -3.18874 29975 ft 416 kts 171°
2026-04-30 10:25 44.18897 -3.18212 29437 ft 411 kts 171°
2026-04-30 10:25 44.16092 -3.17558 28931 ft 406 kts 172°
2026-04-30 10:25 44.13353 -3.16919 28460 ft 402 kts 172°
2026-04-30 10:26 44.10605 -3.16280 28007 ft 399 kts 172°
2026-04-30 10:26 44.07854 -3.15641 27558 ft 403 kts 172°
2026-04-30 10:26 44.05129 -3.15008 27104 ft 402 kts 172°
2026-04-30 10:26 44.02391 -3.14306 26585 ft 397 kts 170°
2026-04-30 10:27 43.99706 -3.13525 26133 ft 391 kts 169°
2026-04-30 10:27 43.97069 -3.12730 25696 ft 386 kts 170°
2026-04-30 10:27 43.94452 -3.11944 25259 ft 383 kts 171°
2026-04-30 10:27 43.91849 -3.11173 24840 ft 383 kts 171°
2026-04-30 10:28 43.89223 -3.10405 24405 ft 388 kts 171°
2026-04-30 10:28 43.86580 -3.09638 23967 ft 387 kts 171°
2026-04-30 10:28 43.83968 -3.08882 23494 ft 382 kts 170°
2026-04-30 10:28 43.81376 -3.08133 23022 ft 378 kts 170°
2026-04-30 10:29 43.78816 -3.07395 22565 ft 374 kts 171°
2026-04-30 10:29 43.76279 -3.06664 22118 ft 370 kts 171°
2026-04-30 10:29 43.73767 -3.05942 21710 ft 367 kts 171°
2026-04-30 10:29 43.71269 -3.05225 21319 ft 367 kts 171°
2026-04-30 10:30 43.68782 -3.04511 20902 ft 363 kts 170°
2026-04-30 10:30 43.66376 -3.03544 20476 ft 359 kts 154°
2026-04-30 10:30 43.64483 -3.01379 20158 ft 354 kts 126°
2026-04-30 10:30 43.63519 -2.98346 19866 ft 348 kts 98°
2026-04-30 10:31 43.63645 -2.95068 19569 ft 345 kts 72°
2026-04-30 10:31 43.64718 -2.92077 19164 ft 351 kts 59°
2026-04-30 10:31 43.65596 -2.88936 18697 ft 354 kts 82°
2026-04-30 10:31 43.65400 -2.85598 18345 ft 348 kts 105°
2026-04-30 10:32 43.64677 -2.82438 17910 ft 342 kts 108°
2026-04-30 10:32 43.63952 -2.79334 17490 ft 339 kts 108°
2026-04-30 10:32 43.63207 -2.76253 17080 ft 339 kts 110°
2026-04-30 10:32 43.62334 -2.73216 16703 ft 340 kts 114°
2026-04-30 10:33 43.61314 -2.70280 16299 ft 339 kts 118°
2026-04-30 10:33 43.60156 -2.67465 15895 ft 337 kts 122°
2026-04-30 10:33 43.58866 -2.64775 15499 ft 336 kts 127°
2026-04-30 10:33 43.57456 -2.62224 15086 ft 333 kts 131°
2026-04-30 10:34 43.55945 -2.59840 14702 ft 327 kts 135°
2026-04-30 10:34 43.54354 -2.57641 14319 ft 321 kts 139°
2026-04-30 10:34 43.52699 -2.55631 13941 ft 314 kts 142°
2026-04-30 10:34 43.51003 -2.53820 13553 ft 310 kts 146°
2026-04-30 10:35 43.49226 -2.52152 13175 ft 309 kts 149°
2026-04-30 10:35 43.47381 -2.50619 12805 ft 309 kts 152°
2026-04-30 10:35 43.45490 -2.49227 12431 ft 307 kts 155°
2026-04-30 10:35 43.43556 -2.48026 12060 ft 301 kts 159°
2026-04-30 10:36 43.41605 -2.47046 11650 ft 297 kts 163°
2026-04-30 10:36 43.39616 -2.46248 11267 ft 297 kts 167°
2026-04-30 10:36 43.37609 -2.45606 10900 ft 296 kts 170°
2026-04-30 10:36 43.35603 -2.45120 10530 ft 290 kts 173°
2026-04-30 10:37 43.33625 -2.44801 10334 ft 281 kts 176°
2026-04-30 10:37 43.31701 -2.44641 10205 ft 273 kts 179°
2026-04-30 10:37 43.29817 -2.44609 10082 ft 269 kts 181°
2026-04-30 10:37 43.27950 -2.44700 9722 ft 267 kts 185°
2026-04-30 10:38 43.26135 -2.44951 9393 ft 264 kts 188°
2026-04-30 10:38 43.24339 -2.45345 9089 ft 259 kts 191°
2026-04-30 10:38 43.22583 -2.45853 8759 ft 256 kts 194°
2026-04-30 10:38 43.20858 -2.46463 8469 ft 256 kts 196°
2026-04-30 10:39 43.19119 -2.47047 8141 ft 259 kts 187°
2026-04-30 10:39 43.17371 -2.46577 7840 ft 259 kts 156°
2026-04-30 10:39 43.15758 -2.45532 7517 ft 256 kts 169°
2026-04-30 10:39 43.14070 -2.45722 7503 ft 243 kts 205°
2026-04-30 10:40 43.12767 -2.47258 7165 ft 258 kts 239°
2026-04-30 10:40 43.12354 -2.49617 6866 ft 258 kts 274°
2026-04-30 10:40 43.13044 -2.51808 6799 ft 252 kts 309°
2026-04-30 10:40 43.14472 -2.53165 6707 ft 249 kts 329°
2026-04-30 10:41 43.15833 -2.54578 6574 ft 248 kts 308°
2026-04-30 10:41 43.16883 -2.56499 6229 ft 255 kts 305°
2026-04-30 10:41 43.17921 -2.58478 5841 ft 256 kts 302°
2026-04-30 10:41 43.18906 -2.60513 5439 ft 255 kts 298°
2026-04-30 10:42 43.19753 -2.62590 5096 ft 250 kts 294°
2026-04-30 10:42 43.20523 -2.64685 4697 ft 242 kts 294°
2026-04-30 10:42 43.21256 -2.66724 4344 ft 237 kts 293°
2026-04-30 10:42 43.21986 -2.68749 3989 ft 237 kts 294°
2026-04-30 10:43 43.22714 -2.70754 3688 ft 233 kts 295°
2026-04-30 10:43 43.23435 -2.72736 3502 ft 233 kts 295°
2026-04-30 10:43 43.24160 -2.74733 3313 ft 233 kts 296°
2026-04-30 10:43 43.24871 -2.76685 2953 ft 224 kts 295°
2026-04-30 10:44 43.25543 -2.78539 2593 ft 216 kts 295°
2026-04-30 10:44 43.26218 -2.80388 2108 ft 211 kts 295°
2026-04-30 10:44 43.26858 -2.82149 1628 ft 205 kts 296°
2026-04-30 10:44 43.27469 -2.83824 1318 ft 188 kts 296°
2026-04-30 10:45 43.28024 -2.85347 1031 ft 169 kts 296°
2026-04-30 10:45 43.28518 -2.86704 794 ft 152 kts 297°
2026-04-30 10:45 43.28983 -2.87978 577 ft 152 kts 297°
2026-04-30 10:45 43.29464 -2.89294 334 ft 156 kts 297°
2026-04-30 10:46 43.29933 -2.90597 139 ft 143 kts 297°
2026-04-30 10:46 43.30321 -2.91640 125 ft 86 kts 297°
2026-04-30 10:46 43.30494 -2.91958 124 ft 26 kts 323°
2026-04-30 10:46 43.30503 -2.91967 124 ft 24 kts 325°
2026-04-30 10:47 43.30559 -2.92020 127 ft 13 kts 326°
2026-04-30 10:47 43.30632 -2.92006 126 ft 13 kts 70°
2026-04-30 10:47 43.30605 -2.91894 123 ft 12 kts 114°
2026-04-30 10:48 43.30566 -2.91788 127 ft 13 kts 117°
2026-04-30 10:48 43.30514 -2.91651 125 ft 19 kts 117°
2026-04-30 10:48 43.30451 -2.91479 125 ft 20 kts 116°
2026-04-30 10:48 43.30389 -2.91309 124 ft 20 kts 116°
2026-04-30 10:49 43.30331 -2.91153 126 ft 12 kts 117°
2026-04-30 10:49 43.30306 -2.91064 122 ft 10 kts 86°
2026-04-30 10:49 43.30360 -2.91002 124 ft 10 kts 28°
2026-04-30 10:49 43.30404 -2.90930 125 ft 10 kts 82°
2026-04-30 10:50 43.30408 -2.90828 126 ft 11 kts 92°
2026-04-30 10:50 43.30382 -2.90729 126 ft 11 kts 116°
2026-04-30 10:50 43.30349 -2.90639 123 ft 1 kts 108°
2026-04-30 10:50 43.30367 -2.90606 122 ft 8 kts 36°
2026-04-30 10:51 43.30403 -2.90579 124 ft 0 kts 26°